Time,TemperatureF,DewpointF,PressureIn,WindDirection,WindDirectionDegrees,WindSpeedMPH,WindSpeedGustMPH,Humidity,HourlyPrecipIn,Conditions,Clouds,dailyrainin,SoftwareType,DateUTC
2013-01-25 00:01:00,44.0,43.0,-100.00,ESE,120,10.0,11.0,95,0.00,,,-99.99,,2013-01-25 08:01:00,
2013-01-25 00:22:00,44.0,43.0,-100.00,ESE,120,10.0,11.0,95,0.00,,,-99.99,,2013-01-25 08:22:00,
2013-01-25 00:32:00,44.0,43.0,-100.00,ESE,120,10.0,11.0,95,0.00,,,-99.99,,2013-01-25 08:32:00,
2013-01-25 00:42:00,44.0,43.0,-100.00,ESE,120,10.0,11.0,95,0.00,,,-99.99,,2013-01-25 08:42:00,
2013-01-25 00:52:00,44.0,43.0,-100.00,ESE,120,10.0,11.0,95,0.00,,,-99.99,,2013-01-25 08:52:00,
2013-01-25 01:01:00,44.0,43.0,-100.00,SE,130,11.0,12.0,96,0.00,,,-99.99,,2013-01-25 09:01:00,
2013-01-25 01:21:00,44.0,43.0,-100.00,SE,130,11.0,12.0,96,0.00,,,-99.99,,2013-01-25 09:21:00,
2013-01-25 01:32:00,44.0,43.0,-100.00,SE,130,11.0,12.0,96,0.00,,,-99.99,,2013-01-25 09:32:00,
2013-01-25 01:42:00,44.0,43.0,-100.00,SE,130,11.0,12.0,96,0.00,,,-99.99,,2013-01-25 09:42:00,
2013-01-25 01:52:00,44.0,43.0,-100.00,SE,130,11.0,12.0,96,0.00,,,-99.99,,2013-01-25 09:52:00,
2013-01-25 02:01:00,45.0,44.0,-100.00,SSE,160,12.0,14.0,96,0.00,,,-99.99,,2013-01-25 10:01:00,
2013-01-25 02:22:00,45.0,44.0,-100.00,SSE,160,12.0,14.0,96,0.00,,,-99.99,,2013-01-25 10:22:00,
2013-01-25 02:32:00,45.0,44.0,-100.00,SSE,160,12.0,14.0,96,0.00,,,-99.99,,2013-01-25 10:32:00,
2013-01-25 02:42:00,45.0,44.0,-100.00,SSE,160,12.0,14.0,96,0.00,,,-99.99,,2013-01-25 10:42:00,
2013-01-25 02:52:00,45.0,44.0,-100.00,SSE,160,12.0,14.0,96,0.00,,,-99.99,,2013-01-25 10:52:00,
2013-01-25 03:01:00,44.0,43.0,-100.00,SSE,160,13.0,17.0,96,0.00,,,-99.99,,2013-01-25 11:01:00,
2013-01-25 03:22:00,44.0,43.0,-100.00,SSE,160,13.0,17.0,96,0.00,,,-99.99,,2013-01-25 11:22:00,
2013-01-25 03:33:00,44.0,43.0,-100.00,SSE,160,13.0,17.0,96,0.00,,,-99.99,,2013-01-25 11:33:00,
2013-01-25 03:42:00,44.0,43.0,-100.00,SSE,160,13.0,17.0,96,0.00,,,-99.99,,2013-01-25 11:42:00,
2013-01-25 03:52:00,44.0,43.0,-100.00,SSE,160,13.0,17.0,96,0.00,,,-99.99,,2013-01-25 11:52:00,
2013-01-25 04:01:00,43.0,42.0,-100.00,ESE,120,9.0,17.0,95,0.00,,,-99.99,,2013-01-25 12:01:00,
2013-01-25 04:22:00,43.0,42.0,-100.00,ESE,120,9.0,17.0,95,0.00,,,-99.99,,2013-01-25 12:22:00,
2013-01-25 04:32:00,43.0,42.0,-100.00,ESE,120,9.0,17.0,95,0.00,,,-99.99,,2013-01-25 12:32:00,
2013-01-25 04:42:00,43.0,42.0,-100.00,ESE,120,9.0,17.0,95,0.00,,,-99.99,,2013-01-25 12:42:00,
2013-01-25 04:53:00,43.0,42.0,-100.00,ESE,120,9.0,17.0,95,0.00,,,-99.99,,2013-01-25 12:53:00,
2013-01-25 05:01:00,41.0,40.0,-100.00,ESE,120,10.0,11.0,95,0.00,,,-99.99,,2013-01-25 13:01:00,
2013-01-25 05:22:00,41.0,40.0,-100.00,ESE,120,10.0,11.0,95,0.00,,,-99.99,,2013-01-25 13:22:00,
2013-01-25 05:33:00,41.0,40.0,-100.00,ESE,120,10.0,11.0,95,0.00,,,-99.99,,2013-01-25 13:33:00,
2013-01-25 05:43:00,41.0,40.0,-100.00,ESE,120,10.0,11.0,95,0.00,,,-99.99,,2013-01-25 13:43:00,
2013-01-25 05:52:00,41.0,40.0,-100.00,ESE,120,10.0,11.0,95,0.00,,,-99.99,,2013-01-25 13:52:00,
2013-01-25 06:01:00,40.0,39.0,-100.00,SE,130,14.0,15.0,96,0.00,,,-99.99,,2013-01-25 14:01:00,
2013-01-25 06:23:00,40.0,39.0,-100.00,SE,130,14.0,15.0,96,0.00,,,-99.99,,2013-01-25 14:23:00,
2013-01-25 06:33:00,40.0,39.0,-100.00,SE,130,14.0,15.0,96,0.00,,,-99.99,,2013-01-25 14:33:00,
2013-01-25 06:42:00,40.0,39.0,-100.00,SE,130,14.0,15.0,96,0.00,,,-99.99,,2013-01-25 14:42:00,
2013-01-25 06:53:00,40.0,39.0,-100.00,SE,130,14.0,15.0,96,0.00,,,-99.99,,2013-01-25 14:53:00,
2013-01-25 07:01:00,40.0,39.0,-100.00,SE,130,14.0,16.0,96,0.00,,,-99.99,,2013-01-25 15:01:00,
2013-01-25 07:22:00,40.0,39.0,-100.00,SE,130,14.0,16.0,96,0.00,,,-99.99,,2013-01-25 15:22:00,
2013-01-25 07:33:00,40.0,39.0,-100.00,SE,130,14.0,16.0,96,0.00,,,-99.99,,2013-01-25 15:33:00,
2013-01-25 07:42:00,40.0,39.0,-100.00,SE,130,14.0,16.0,96,0.00,,,-99.99,,2013-01-25 15:42:00,
2013-01-25 07:53:00,40.0,39.0,-100.00,SE,130,14.0,16.0,96,0.00,,,-99.99,,2013-01-25 15:53:00,
2013-01-25 08:01:00,43.0,42.0,-100.00,SSE,150,10.0,17.0,96,0.00,,,-99.99,,2013-01-25 16:01:00,
2013-01-25 08:23:00,43.0,42.0,-100.00,SSE,150,10.0,17.0,96,0.00,,,-99.99,,2013-01-25 16:23:00,
2013-01-25 08:33:00,43.0,42.0,-100.00,SSE,150,10.0,17.0,96,0.00,,,-99.99,,2013-01-25 16:33:00,
2013-01-25 08:43:00,43.0,42.0,-100.00,SSE,150,10.0,17.0,96,0.00,,,-99.99,,2013-01-25 16:43:00,
2013-01-25 08:52:00,43.0,42.0,-100.00,SSE,150,10.0,17.0,96,0.00,,,-99.99,,2013-01-25 16:52:00,
2013-01-25 09:01:00,43.0,42.0,-100.00,SE,130,8.0,17.0,96,0.00,,,-99.99,,2013-01-25 17:01:00,
2013-01-25 09:22:00,43.0,42.0,-100.00,SE,130,8.0,17.0,96,0.00,,,-99.99,,2013-01-25 17:22:00,
2013-01-25 09:33:00,43.0,42.0,-100.00,SE,130,8.0,17.0,96,0.00,,,-99.99,,2013-01-25 17:33:00,
2013-01-25 09:43:00,43.0,42.0,-100.00,SE,130,8.0,17.0,96,0.00,,,-99.99,,2013-01-25 17:43:00,
2013-01-25 09:53:00,43.0,42.0,-100.00,SE,130,8.0,17.0,96,0.00,,,-99.99,,2013-01-25 17:53:00,
2013-01-25 10:01:00,42.0,41.0,-100.00,SSE,150,12.0,13.0,95,0.00,,,-99.99,,2013-01-25 18:01:00,
2013-01-25 10:24:00,42.0,41.0,-100.00,SSE,150,12.0,13.0,95,0.00,,,-99.99,,2013-01-25 18:24:00,
2013-01-25 10:33:00,42.0,41.0,-100.00,SSE,150,12.0,13.0,95,0.00,,,-99.99,,2013-01-25 18:33:00,
2013-01-25 10:43:00,42.0,41.0,-100.00,SSE,150,12.0,13.0,95,0.00,,,-99.99,,2013-01-25 18:43:00,
2013-01-25 10:52:00,42.0,41.0,-100.00,SSE,150,12.0,13.0,95,0.00,,,-99.99,,2013-01-25 18:52:00,
2013-01-25 11:01:00,43.0,42.0,-100.00,SE,130,9.0,12.0,96,0.00,,,-99.99,,2013-01-25 19:01:00,
2013-01-25 11:23:00,43.0,42.0,-100.00,SE,130,9.0,12.0,96,0.00,,,-99.99,,2013-01-25 19:23:00,
2013-01-25 11:33:00,43.0,42.0,-100.00,SE,130,9.0,12.0,96,0.00,,,-99.99,,2013-01-25 19:33:00,
2013-01-25 11:42:00,43.0,42.0,-100.00,SE,130,9.0,12.0,96,0.00,,,-99.99,,2013-01-25 19:42:00,
2013-01-25 11:53:00,43.0,42.0,-100.00,SE,130,9.0,12.0,96,0.00,,,-99.99,,2013-01-25 19:53:00,
2013-01-25 12:01:00,44.0,43.0,-100.00,ESE,120,10.0,12.0,96,0.00,,,-99.99,,2013-01-25 20:01:00,
2013-01-25 12:23:00,44.0,43.0,-100.00,ESE,120,10.0,12.0,96,0.00,,,-99.99,,2013-01-25 20:23:00,
2013-01-25 12:33:00,44.0,43.0,-100.00,ESE,120,10.0,12.0,96,0.00,,,-99.99,,2013-01-25 20:33:00,
2013-01-25 12:43:00,44.0,43.0,-100.00,ESE,120,10.0,12.0,96,0.00,,,-99.99,,2013-01-25 20:43:00,
2013-01-25 12:52:00,44.0,43.0,-100.00,ESE,120,10.0,12.0,96,0.00,,,-99.99,,2013-01-25 20:52:00,
2013-01-25 13:01:00,44.0,43.0,-100.00,SSE,160,14.0,16.0,96,0.00,,,-99.99,,2013-01-25 21:01:00,
2013-01-25 13:23:00,44.0,43.0,-100.00,SSE,160,14.0,16.0,96,0.00,,,-99.99,,2013-01-25 21:23:00,
2013-01-25 13:33:00,44.0,43.0,-100.00,SSE,160,14.0,16.0,96,0.00,,,-99.99,,2013-01-25 21:33:00,
2013-01-25 13:42:00,44.0,43.0,-100.00,SSE,160,14.0,16.0,96,0.00,,,-99.99,,2013-01-25 21:42:00,
2013-01-25 13:52:00,44.0,43.0,-100.00,SSE,160,14.0,16.0,96,0.00,,,-99.99,,2013-01-25 21:52:00,
2013-01-25 14:01:00,43.0,42.0,-100.00,SSE,160,15.0,16.0,96,0.00,,,-99.99,,2013-01-25 22:01:00,
2013-01-25 14:42:00,43.0,42.0,-100.00,SSE,160,15.0,16.0,96,0.00,,,-99.99,,2013-01-25 22:42:00,
2013-01-25 14:52:00,43.0,42.0,-100.00,SSE,160,15.0,16.0,96,0.00,,,-99.99,,2013-01-25 22:52:00,
2013-01-25 15:01:00,44.0,43.0,-100.00,SSE,150,5.0,16.0,96,0.00,,,-99.99,,2013-01-25 23:01:00,
2013-01-25 15:22:00,44.0,43.0,-100.00,SSE,150,5.0,16.0,96,0.00,,,-99.99,,2013-01-25 23:22:00,
2013-01-25 15:32:00,44.0,43.0,-100.00,SSE,150,5.0,16.0,96,0.00,,,-99.99,,2013-01-25 23:32:00,
2013-01-25 15:42:00,44.0,43.0,-100.00,SSE,150,5.0,16.0,96,0.00,,,-99.99,,2013-01-25 23:42:00,
2013-01-25 15:52:00,44.0,43.0,-100.00,SSE,150,5.0,16.0,96,0.00,,,-99.99,,2013-01-25 23:52:00,
2013-01-25 16:01:00,44.0,43.0,-100.00,ESE,110,9.0,10.0,96,0.00,,,-99.99,,2013-01-26 00:01:00,
2013-01-25 16:22:00,44.0,43.0,-100.00,ESE,110,9.0,10.0,96,0.00,,,-99.99,,2013-01-26 00:22:00,
2013-01-25 16:32:00,44.0,43.0,-100.00,ESE,110,9.0,10.0,96,0.00,,,-99.99,,2013-01-26 00:32:00,
2013-01-25 16:42:00,44.0,43.0,-100.00,ESE,110,9.0,10.0,96,0.00,,,-99.99,,2013-01-26 00:42:00,
2013-01-25 16:53:00,44.0,43.0,-100.00,ESE,110,9.0,10.0,96,0.00,,,-99.99,,2013-01-26 00:53:00,
2013-01-25 17:01:00,43.0,42.0,-100.00,ESE,120,11.0,16.0,96,0.00,,,-99.99,,2013-01-26 01:01:00,
2013-01-25 17:22:00,43.0,42.0,-100.00,ESE,120,11.0,16.0,96,0.00,,,-99.99,,2013-01-26 01:22:00,
2013-01-25 17:32:00,43.0,42.0,-100.00,ESE,120,11.0,16.0,96,0.00,,,-99.99,,2013-01-26 01:32:00,
2013-01-25 17:42:00,43.0,42.0,-100.00,ESE,120,11.0,16.0,96,0.00,,,-99.99,,2013-01-26 01:42:00,
2013-01-25 17:52:00,43.0,42.0,-100.00,ESE,120,11.0,16.0,96,0.00,,,-99.99,,2013-01-26 01:52:00,
2013-01-25 18:01:00,44.0,43.0,-100.00,SE,130,12.0,16.0,96,0.00,,,-99.99,,2013-01-26 02:01:00,
2013-01-25 18:22:00,44.0,43.0,-100.00,SE,130,12.0,16.0,96,0.00,,,-99.99,,2013-01-26 02:22:00,
2013-01-25 18:32:00,44.0,43.0,-100.00,SE,130,12.0,16.0,96,0.00,,,-99.99,,2013-01-26 02:32:00,
2013-01-25 18:42:00,44.0,43.0,-100.00,SE,130,12.0,16.0,96,0.00,,,-99.99,,2013-01-26 02:42:00,
2013-01-25 18:52:00,44.0,43.0,-100.00,SE,130,12.0,16.0,96,0.00,,,-99.99,,2013-01-26 02:52:00,
2013-01-25 19:01:00,44.0,43.0,-100.00,SE,140,11.0,14.0,96,0.00,,,-99.99,,2013-01-26 03:01:00,
2013-01-25 19:22:00,44.0,43.0,-100.00,SE,140,11.0,14.0,96,0.00,,,-99.99,,2013-01-26 03:22:00,
2013-01-25 19:32:00,44.0,43.0,-100.00,SE,140,11.0,14.0,96,0.00,,,-99.99,,2013-01-26 03:32:00,
2013-01-25 19:43:00,44.0,43.0,-100.00,SE,140,11.0,14.0,96,0.00,,,-99.99,,2013-01-26 03:43:00,
2013-01-25 19:52:00,44.0,43.0,-100.00,SE,140,11.0,14.0,96,0.00,,,-99.99,,2013-01-26 03:52:00,
2013-01-25 20:01:00,44.0,43.0,-100.00,SE,140,11.0,13.0,96,0.00,,,-99.99,,2013-01-26 04:01:00,
2013-01-25 20:21:00,44.0,43.0,-100.00,SE,140,11.0,13.0,96,0.00,,,-99.99,,2013-01-26 04:21:00,
2013-01-25 20:32:00,44.0,43.0,-100.00,SE,140,11.0,13.0,96,0.00,,,-99.99,,2013-01-26 04:32:00,
2013-01-25 20:42:00,44.0,43.0,-100.00,SE,140,11.0,13.0,96,0.00,,,-99.99,,2013-01-26 04:42:00,
2013-01-25 20:52:00,44.0,43.0,-100.00,SE,140,11.0,13.0,96,0.00,,,-99.99,,2013-01-26 04:52:00,
2013-01-25 21:01:00,44.0,43.0,-100.00,South,170,9.0,11.0,96,0.00,,,-99.99,,2013-01-26 05:01:00,
2013-01-25 21:23:00,44.0,43.0,-100.00,South,170,9.0,11.0,96,0.00,,,-99.99,,2013-01-26 05:23:00,
2013-01-25 21:33:00,44.0,43.0,-100.00,South,170,9.0,11.0,96,0.00,,,-99.99,,2013-01-26 05:33:00,
2013-01-25 21:42:00,44.0,43.0,-100.00,South,170,9.0,11.0,96,0.00,,,-99.99,,2013-01-26 05:42:00,
2013-01-25 21:52:00,44.0,43.0,-100.00,South,170,9.0,11.0,96,0.00,,,-99.99,,2013-01-26 05:52:00,
2013-01-25 22:01:00,44.0,43.0,-100.00,South,170,11.0,13.0,96,0.00,,,-99.99,,2013-01-26 06:01:00,
2013-01-25 22:21:00,44.0,43.0,-100.00,South,170,11.0,13.0,96,0.00,,,-99.99,,2013-01-26 06:21:00,
2013-01-25 22:32:00,44.0,43.0,-100.00,South,170,11.0,13.0,96,0.00,,,-99.99,,2013-01-26 06:32:00,
2013-01-25 22:42:00,44.0,43.0,-100.00,South,170,11.0,13.0,96,0.00,,,-99.99,,2013-01-26 06:42:00,
2013-01-25 22:52:00,44.0,43.0,-100.00,South,170,11.0,13.0,96,0.00,,,-99.99,,2013-01-26 06:52:00,
2013-01-25 23:01:00,44.0,43.0,-100.00,SW,220,6.0,13.0,96,0.00,,,-99.99,,2013-01-26 07:01:00,
2013-01-25 23:22:00,44.0,43.0,-100.00,SW,220,6.0,13.0,96,0.00,,,-99.99,,2013-01-26 07:22:00,
2013-01-25 23:33:00,44.0,43.0,-100.00,SW,220,6.0,13.0,96,0.00,,,-99.99,,2013-01-26 07:33:00,
2013-01-25 23:42:00,44.0,43.0,-100.00,SW,220,6.0,13.0,96,0.00,,,-99.99,,2013-01-26 07:42:00,
2013-01-25 23:51:00,44.0,43.0,-100.00,SW,220,6.0,13.0,96,0.00,,,-99.99,,2013-01-26 07:51:00,